San Jose, Costa Rica

5:11 PM CST on June 22, 2017 (GMT -0600)
Juan Santamaria International

Weather History for MROC - September, 2011

Change the Weather History Date:

Sunday, September 25, 2011

  Actual Average Record
Temperature  
Mean Temperature 72 °F -  
Max Temperature 79 °F 78 °F 86 °F (2002)
Min Temperature 65 °F 64 °F 62 °F (1996)
Cooling Degree Days 7    
Growing Degree Days 22 (Base 50)    
Moisture  
Dew Point 69 °F    
Average Humidity 95    
Maximum Humidity 100    
Minimum Humidity 78    
Precipitation  
Precipitation 0.12 in 0.44 in - ()
Sea Level Pressure  
Sea Level Pressure 29.97 in    
Wind  
Wind Speed 3 mph ()    
Max Wind Speed 12 mph    
Max Gust Speed -    
Visibility 6.8 miles    
Events Fog , Rain , Thunderstorm    
Averages and records for this station are not official NWS values.
T = Trace of Precipitation, MM = Missing Value Source: Averaged Metar Reports

Daily Weather History Graph

Daily Weather History Graph

Search for Another Location

Airport or City:

Trip Planner

Search our weather history database for the weather conditions in past years. The results will help you decide how hot, cold, wet, or windy it might be!

Date:

Astronomy

Sep. 25, 2011 Rise Set
Actual Time 5:25 AM CST 5:31 PM CST
Civil Twilight 5:04 AM CST 5:52 PM CST
Nautical Twilight 4:40 AM CST 6:16 PM CST
Astronomical Twilight 4:16 AM CST 6:40 PM CST
Moon 3:29 AM CST (9/25) 4:01 PM CST (9/25)
Length of Visible Light 12h 47m
Length of Day
12h 05m
Waning Crescent, 4% of the Moon is Illuminated
Sep 25
Waning Crescent
Sep 27
New
Oct 3
First Quarter
Oct 11
Full
Oct 19
Last Quarter

Hourly Weather History & Observations

Time (CST) Temp. Dew Point Humidity Pressure Visibility Wind Dir Wind Speed Gust Speed Precip Events Conditions
12:00 AM 70 °F 70 °F 99% 29.83 in 9 mi Calm Calm - - Fog Light Fog
12:00 AM 69.8 °F 69.8 °F 100% 30.02 in 6.2 mi Calm Calm - N/A Fog Overcast
1:00 AM 68.0 °F 68.0 °F 100% 29.99 in 6.2 mi Calm Calm - N/A   Mostly Cloudy
2:00 AM 68.0 °F 68.0 °F 100% 29.96 in - East 5.8 mph - N/A   Clear
3:00 AM 68 °F 68 °F 100% 29.78 in 12 mi NE 8.1 mph - -   Partly Cloudy
3:00 AM 68.0 °F 68.0 °F 100% 29.94 in - NE 8.1 mph - N/A   Clear
4:00 AM 68.0 °F 66.2 °F 94% 29.93 in - Calm Calm - N/A   Clear
5:00 AM 66.2 °F 66.2 °F 100% 29.97 in - NNE 3.5 mph - N/A   Clear
6:00 AM 66 °F 66 °F 100% 29.82 in 12 mi NE 4.6 mph - -   Mostly Cloudy
6:00 AM 66.2 °F 66.2 °F 100% 30.00 in - NE 4.6 mph - N/A   Clear
7:00 AM 68.0 °F 68.0 °F 100% 30.03 in 6.2 mi WSW 2.3 mph - N/A   Mostly Cloudy
7:35 AM 69.8 °F 69.8 °F 100% 30.04 in 6.2 mi NE 6.9 mph - N/A   Mostly Cloudy
8:00 AM 71.6 °F 68.0 °F 88% 30.04 in 6.2 mi ENE 6.9 mph - N/A   Mostly Cloudy
9:00 AM 73 °F 70 °F 87% 29.87 in 12 mi WSW 2.3 mph - -   Scattered Clouds
9:00 AM 73.4 °F 69.8 °F 88% 30.04 in - WSW 2.3 mph - N/A   Clear
10:00 AM 75.2 °F 71.6 °F 89% 30.05 in 6.2 mi NW 5.8 mph - N/A   Mostly Cloudy
11:00 AM 78.8 °F 71.6 °F 78% 30.02 in 6.2 mi WNW 3.5 mph - N/A   Mostly Cloudy
12:00 PM 79 °F 73 °F 78% 29.81 in 12 mi WSW 8.1 mph - -   Partly Cloudy
12:00 PM 78.8 °F 73.4 °F 83% 30.00 in 6.2 mi WSW 8.1 mph - N/A   Mostly Cloudy
1:00 PM 78.8 °F 71.6 °F 78% 29.96 in 6.2 mi WSW 9.2 mph - N/A   Mostly Cloudy
2:00 PM 77.0 °F 73.4 °F 89% 29.94 in 6.2 mi SW 11.5 mph - N/A   Mostly Cloudy
3:00 PM 75.2 °F 71.6 °F 89% 29.98 in 6.2 mi West 11.5 mph - N/A   Mostly Cloudy
3:20 PM 73.4 °F 73.4 °F 100% 29.93 in 5.0 mi Calm Calm - N/A Rain , Thunderstorm Light Thunderstorms and Rain
4:00 PM 71.6 °F 71.6 °F 100% 29.94 in 1.2 mi SSW 4.6 mph - N/A Rain Light Rain
5:00 PM 71.6 °F 71.6 °F 100% 29.97 in 1.2 mi South 5.8 mph - N/A Rain Light Rain
6:00 PM 68.0 °F 68.0 °F 100% 30.00 in 5.0 mi NNE 3.5 mph - N/A Rain Light Rain
7:00 PM 68.0 °F 68.0 °F 100% 30.02 in 6.2 mi Calm Calm - N/A   Mostly Cloudy
8:00 PM 69.8 °F 69.8 °F 100% 30.06 in 5.0 mi Calm Calm - N/A Fog Fog
9:00 PM 68 °F 68 °F 100% 29.89 in 9 mi Calm Calm - - Rain Light Rain
9:00 PM 68.0 °F 68.0 °F 100% 30.07 in 6.2 mi Calm Calm - N/A Rain Light Rain
10:00 PM 68.0 °F 68.0 °F 100% 30.08 in 6.2 mi Calm Calm - N/A   Mostly Cloudy
11:00 PM 68.0 °F 68.0 °F 100% 30.07 in 6.2 mi Calm Calm - N/A   Mostly Cloudy